Regional Weather Roundup
Issued by NWS

Home | Current Version | Previous Version | Graphics & Text | Print | Product List | Glossary On
Versions: 1 2 3 4 5 6 7 8 9 10 11 12 13 14 15 16 17 18 19 20 21 22 23 24 25 26 27 28 29 30 31 32 33 34 35 36 37 38 39 40 41 42 43 44 45 46 47 48 49 50
474
ASUS44 KLIX 312110
RWRLA
LOUISIANA WEATHER ROUNDUP
NATIONAL WEATHER SERVICE NEW ORLEANS LA
400 PM CDT SUN AUG 31 2014

NOTE: "FAIR" INDICATES FEW OR NO CLOUDS BELOW 12,000 FEET WITH NO
      SIGNIFICANT WEATHER AND/OR OBSTRUCTIONS TO VISIBILITY.
      SKY/WX - SKY CONDITION AND SIGNIFICANT WEATHER.
      TMP - AIR TEMPERATURE.    DP   - DEWPOINT TEMPERATURE.
      RH  - RELATIVE HUMIDITY.  PRES - PRESSURE.
      HX  - HEAT INDEX.         WCI  - WIND CHILL INDEX.

*  THESE STATIONS ARE NOT NWS OR FAA STATIONS AND ARE NOT UNDER
   NWS QUALITY CONTROL.

LAZ040-048-061>063-065-066-069-312200-
SOUTHEAST LOUISIANA

CITY           SKY/WX    TMP DP  RH WIND       PRES   REMARKS
N.O. AUDUBON   NOT AVBL
N.O. INTL ARPT PTSUNNY   91  74  57 SE12      30.03F HX 100
N.O. LAKEFRONT MOSUNNY   91  74  57 SE12      30.04F HX 100
N.O. DOWNTOWN* FAIR      91  72  52 SE9       30.04F HX  98
SLIDELL        SUNNY     90  73  57 S12       30.04F HX  98
BATON ROUGE    PTSUNNY   93  72  50 S8G17     30.02F HX 101
BOOTHVILLE     MOSUNNY   88  77  69 E10       30.05F HX 100
BELLE CHASSE   PTSUNNY   90  74  59 E13       30.02F HX  99
BOGALUSA*      FAIR      92  68  45 S9        30.05F HX  96
GALLIANO*      NOT AVBL
NEW ROADS*     FAIR      91  74  57 S8        30.02F HX 100
GONZALES*      MOCLDY    90  74  59 SE5       30.01F HX  99
HAMMOND*       MOSUNNY   91  70  49 SE10      30.05F HX  97
HOUMA*         MOSUNNY   90  72  55 SE12      30.03F HX  96
PORT FOURCHON* NOT AVBL

$$

LAZ041-044-053-054-312200-
SOUTHWEST LOUISIANA

CITY           SKY/WX    TMP DP  RH WIND       PRES   REMARKS
LAKE CHARLES   PTSUNNY   86  75  69 S8        30.00F HX  95
LAFAYETTE      MOSUNNY   91  73  55 S13       30.02F HX  99
PATTERSON      SUNNY     91  75  59 SE9       30.05F HX 102
SALT POINT       N/A     92  77  61 VRB5      30.01F HX 105
NEW IBERIA     MOSUNNY   91  75  59 S13       30.02F HX 101
CHENAULT AIRPK NOT AVBL

$$

LAZ027-028-312200-
CENTRAL LOUISIANA

CITY           SKY/WX    TMP DP  RH WIND       PRES   REMARKS
FORT POLK      CLOUDY    84  76  76 S5        30.01F
ALEXANDRIA INT PTSUNNY   88  74  63 S7        29.99F HX  96
ALEXANDRIA     PTSUNNY   90  76  63 SE6       30.01F HX 101

$$

LAZ001-002-312200-
NORTHWEST LOUISIANA

CITY           SKY/WX    TMP DP  RH WIND       PRES   REMARKS
SHREVEPORT     PTSUNNY   91  72  53 S16G22    29.96F HX  98
BARKSDALE AFB  MOSUNNY   89  72  56 S16G22    29.96F HX  97
DTN SHREVEPORT MOSUNNY   88  72  58 S16G22    29.96F

$$

LAZ014-016-312200-
NORTHEAST LOUISIANA

CITY           SKY/WX    TMP DP  RH WIND       PRES   REMARKS
MONROE         PTSUNNY   85  76  74 S7        30.02F
TALLULAH       CLOUDY    86  76  71 S8        30.03F HX  96

$$




USA.gov is the U.S. government's official web portal to all federal, state and local government web resources and services.